Flag for Poland Weather past 2 weeks in Słupsk, Poland

Now
42 °F

Passing clouds.


Feels Like: 39 °F
Forecast: 35 / 57 °F
Wind: 5 mph from North

Location: Leba


UV Index: 3 (Moderate)

Visibility: 13 mi


Pressure: 30.35 "Hg

Humidity: 72%

Dew point: 33 °F

Location of SłupskLocation

Historic Weather in Słupsk

°F

Słupsk temperature yesterday

Maximum temperature yesterday: 45 °F (at 10:00 AM)
Minimum temperature yesterday: 39 °F (at 11:00 PM)
Average temperature yesterday: 42 °F

Past Weeks' High & Low Weather Summary

 TemperatureHumidityPressure
High67 °F (Apr 8, 12:00 PM)100% (Apr 2, 7:00 AM)30.35 "Hg (Apr 2, 7:00 AM)
Low25 °F (Apr 2, 5:00 AM)29% (Apr 5, 4:00 PM)29.54 "Hg (Apr 14, 3:00 PM)
Average44 °F84%29.94 "Hg
* Reported Apr 1 7:00 AM — Apr 16 7:00 AM, Słupsk, Weather by CustomWeather, © 2014

Note: Actual official high and low records may vary slightly from our data, if they occured in-between our weather recording intervals... More about our weather records

Advertising

Historic Weather Conditions — Data for Previous 24 hours

 ConditionsComfort  
Time TempWeatherWind HumidityBarometerVisibility
7:00 AM
Apr 16
42 °FPassing clouds.5 mph72%30.35 "Hg12 mi
6:00 AM41 °FSunny.5 mph74%30.33 "Hg12 mi
5:00 AM40 °FClear.5 mph74%30.32 "Hg12 mi
4:00 AM40 °FClear.3 mph81%30.30 "Hg12 mi
3:00 AM40 °FClear.3 mph69%30.28 "Hg12 mi
2:00 AM40 °FClear.5 mph77%30.27 "Hg12 mi
11:00 PM
Apr 15
39 °FClear.3 mph84%30.22 "Hg12 mi
10:00 PM40 °FClear.3 mph81%30.21 "Hg12 mi
9:00 PM40 °FPassing clouds.6 mph80%30.18 "Hg12 mi
8:00 PM40 °FPassing clouds.6 mph78%30.15 "Hg12 mi
7:00 PM41 °FScattered clouds.8 mph78%30.12 "Hg12 mi
6:00 PM43 °FPartly sunny.7 mph79%30.09 "Hg12 mi
5:00 PM44 °FPartly sunny.7 mph82%30.06 "Hg12 mi
4:00 PM44 °FOvercast.6 mph86%30.03 "Hg12 mi
3:00 PM44 °FPartly sunny.5 mph84%30.00 "Hg12 mi
2:00 PM44 °FOvercast.3 mph86%29.98 "Hg12 mi
1:00 PM45 °FPartly sunny.3 mph82%29.95 "Hg12 mi
12:00 PM44 °FOvercast.3 mph84%29.93 "Hg12 mi
11:00 AM45 °FPartly sunny.3 mph81%29.90 "Hg12 mi
10:00 AM45 °FScattered clouds.3 mph79%29.86 "Hg12 mi
9:00 AM44 °FPartly sunny.2 mph86%29.84 "Hg12 mi
8:00 AM43 °FPartly sunny.2 mph88%29.81 "Hg12 mi
Weather by CustomWeather, © 2014

See weather overview